Hourly Data Report for February 22, 2005

TORONTO CITY
ONTARIO

43°40'00.000" N
79°24'00.000" W
112.50 m
6158355
71508
XTO

Download Data

Hourly Data (February 2005)
Hourly Data Report for February 22, 2005
TIME
LST
Temp Definition
°C
Dew Point Definition
°C
Rel Hum Definition
%
Precip. Amount Definition
mm

Wind Dir Definition
10's deg

Wind Spd Definition
km/h
Visibility Definition
km
Stn Press Definition
kPa
Hmdx Definition


Wind Chill Definition


Weather Definition


00:00 0.7 -2.1 81   LegendMM LegendMM   100.24     LegendNANA
01:00 0.9 -2.2 80   LegendMM LegendMM   100.28     LegendNANA
02:00 0.9 -1.2 86   LegendMM LegendMM   100.32     LegendNANA
03:00 0.7 -1.4 86   LegendMM LegendMM   100.30     LegendNANA
04:00 0.5 -1.4 87   LegendMM LegendMM   100.32     LegendNANA
05:00 0.4 -1.2 89   LegendMM LegendMM   100.38     LegendNANA
06:00 0.4 -1.1 90   LegendMM LegendMM   100.43     LegendNANA
07:00 0.5 -1.8 85   LegendMM LegendMM   100.45     LegendNANA
08:00 0.5 -2.3 81   LegendMM LegendMM   100.50     LegendNANA
09:00 0.8 -3.2 75   LegendMM LegendMM   100.52     LegendNANA
10:00 1.3 -3.7 69   LegendMM LegendMM   100.51     LegendNANA
11:00 2.0 -4.2 63   LegendMM LegendMM   100.52     LegendNANA
12:00 1.7 -3.9 66   LegendMM LegendMM   100.51     LegendNANA
13:00 1.7 -3.6 68   LegendMM LegendMM   100.44     LegendNANA
14:00 0.8 -2.8 77   LegendMM LegendMM   100.39     LegendNANA
15:00 0.4 -1.3 88   LegendMM LegendMM   100.41     LegendNANA
16:00 0.8 -1.3 86   LegendMM LegendMM   100.34     LegendNANA
17:00 0.6 -2.0 83   LegendMM LegendMM   100.40     LegendNANA
18:00 0.0 -2.8 81   LegendMM LegendMM   100.46     LegendNANA
19:00 -0.7 -4.2 77   LegendMM LegendMM   100.54     LegendNANA
20:00 -1.7 -5.4 76   LegendMM LegendMM   100.61     LegendNANA
21:00 -2.3 -6.5 73   LegendMM LegendMM   100.67     LegendNANA
22:00 -3.1 -6.6 77   LegendMM LegendMM   100.72     LegendNANA
23:00 -3.7 -7.0 78   LegendMM LegendMM   100.74     LegendNANA

Notes on Data Quality.

Legend

  • E = Estimated
  • M = Missing
  • NA = Not Available*
  • [empty] = Indicates an unobserved value
Date modified: